Location: *
(40.1308°N, 75.4258°W)
Time: 04:41:52
(UTC+00:00)

Daily predictions for brighter satellites

Satellite Brightness Start Highest point End
(mag) Time Altitude Azimuth Time Altitude Azimuth Time Altitude Azimuth
BREEZE M DEB (TANK) 3.8 00:02:04 10° NW 00:03:38 17° N 00:05:43 10° NE
Lacrosse 4 Rocket 2.5 00:01:50 10° NW 00:05:42 44° WSW 00:09:32 10° S
GEOS 3 Rocket 3.6 00:00:58 10° SE 00:06:05 90° ENE 00:11:14 10° NW
Cosmos 1975 3.6 00:04:17 10° SSW 00:08:10 56° W 00:12:07 10° N
SL-8 R/B 3.8 00:03:37 10° WSW 00:08:24 79° NNW 00:13:13 10° ENE
Okean 2 4.3 00:05:16 10° NNW 00:09:14 51° W 00:13:13 10° S
CZ-2D R/B 3.6 00:05:52 10° S 00:09:38 66° W 00:13:25 10° NNW
Cosmos 2251 Rocket 3.6 00:06:25 10° NNW 00:11:46 63° ENE 00:17:05 10° SSE
Cosmos 1378 3.1 00:08:16 10° N 00:12:03 86° E 00:15:47 10° S
Cosmos 2074 Rocket 3.9 00:06:46 10° N 00:13:02 78° E 00:19:15 10° S
Meteor 1-12 Rocket 4.2 00:08:22 10° S 00:14:05 67° E 00:19:44 10° NNE
Cosmos 2322 Rocket 4.0 00:10:24 10° NW 00:15:21 33° WSW 00:20:16 10° SSW
Cosmos 2237 4.4 00:10:04 10° NNW 00:15:49 77° WSW 00:21:31 10° SSE
Cosmos 1461 2.6 00:16:46 10° SSW 00:20:48 76° ESE 00:24:46 10° NE
Cosmos 2333 4.2 00:17:23 10° NNW 00:23:02 66° ENE 00:27:49 15° SE
Resurs 01 Rocket 3.1 00:25:01 18° ENE 00:25:21 18° ENE 00:28:24 10° NNE
COSMOS 2428 2.9 00:24:48 10° NNW 00:30:22 52° ENE 00:33:42 23° SE
GPS 2-05 Rocket1 3.7 00:28:25 10° WSW 00:30:46 25° S 00:31:02 25° S
Cosmos 1842 3.8 00:27:53 10° NNW 00:31:48 62° W 00:35:41 10° S
Cosmos 2154 Rocket 3.9 00:25:55 10° N 00:32:05 65° E 00:38:13 10° SSE
CZ-2C R/B 4.1 00:32:21 23° E 00:33:29 25° ENE 00:37:47 10° NNE
Cosmos 2322 3.8 00:29:31 10° NNW 00:35:17 81° WSW 00:40:43 11° SSE
Okean 1 Rocket 2.9 00:31:29 10° S 00:35:48 81° E 00:40:10 10° N
Iridium 96 4.5 00:33:06 13° S 00:36:13 65° E 00:39:59 10° N
Cosmos 2219 Rocket 2.2 00:32:33 10° NNW 00:38:05 59° ENE 00:41:03 27° SE
ATLAS 2AS CENTAUR R/B 3.0 00:31:26 10° NNW 00:38:58 56° NE 00:42:53 27° ESE
GP-B 3.7 00:34:44 10° N 00:39:06 58° W 00:43:26 10° SSW
ADEOS Rocket 3.6 00:35:20 10° NNE 00:42:28 54° E 00:49:59 10° S
ASTEX 1 3.3 00:40:47 10° N 00:45:42 89° W 00:50:35 10° S
Cosmos 2360 Rocket 3.6 00:42:51 10° NW 00:47:59 37° WSW 00:53:06 10° S
SL-8 Rocket 4.5 00:46:30 10° N 00:52:15 38° ENE 00:53:32 35° ESE
Cosmos 2219 3.3 00:47:25 10° S 00:52:58 52° ESE 00:58:32 10° NNE
Cosmos 2227 Rocket 3.9 01:00:39 16° NE 01:00:39 16° NE 01:01:59 10° NE
Cosmos 2056 Rocket 3.8 01:00:40 44° E 01:00:40 44° E 01:05:36 10° NNE
COSMOS 2455 3.5 01:00:20 10° NW 01:06:10 52° WSW 01:10:16 19° S
Cosmos 2297 Rocket 3.5 01:11:21 24° NE 01:11:21 24° NE 01:13:41 10° NE
SPOT 3 Rocket 3.8 01:05:09 19° S 01:08:46 65° WSW 01:13:54 10° NNW
Okean 1-7 Rocket 3.8 01:04:43 10° N 01:08:37 53° NE 01:08:37 53° NE
SJ-6B 3.9 01:10:45 24° SSW 01:12:53 46° W 01:16:52 10° NNW
Cosmos 407 Rocket 3.7 01:07:58 10° N 01:12:50 48° ENE 01:12:50 48° ENE
Cosmos 1624 Rocket 4.1 01:13:48 55° ENE 01:13:48 55° ENE 01:18:18 10° NNE
Cosmos 1892 Rocket 3.8 01:10:02 10° N 01:13:52 56° NE 01:13:52 56° NE
ARGOS 3.1 01:13:08 39° S 01:15:15 85° W 01:20:39 10° NNW
Meteor 2-17 Rocket 4.3 01:14:46 10° N 01:20:51 73° E 01:22:08 56° SE
Meteor 2-5 Rocket 4.0 01:15:46 10° N 01:21:18 51° ENE 01:21:18 51° ENE
Cosmos 2333 Rocket 2.7 01:18:07 10° NNW 01:23:41 58° WSW 01:25:57 35° S
Cosmos 614 Rocket 4.1 01:20:29 10° NNW 01:25:18 59° NE 01:25:18 59° NE
SL-24 R/B 4.4 01:28:05 62° N 01:28:05 62° N 01:32:02 10° N
SL-08 RB Rocket 3.8 01:32:09 74° W 01:32:09 74° W 01:36:47 10° NNW
Cosmos 1707 4.0 01:28:57 10° NNW 01:32:34 37° W 01:32:51 36° WSW
Spot 2 Rocket 4.1 01:35:05 44° NNE 01:35:05 44° NNE 01:38:49 10° N
Cosmos 2237 Rocket 2.2 01:35:15 10° NNW 01:40:38 73° NNE 01:40:38 73° NNE
H-2A R/B 2.9 01:39:43 34° SW 01:41:09 42° W 01:45:52 10° NNW
Cosmos 1371 Rocket 4.4 01:37:50 10° SSW 01:43:04 63° WNW 01:48:23 10° NNE
MetOp-A 4.2 01:43:42 70° WSW 01:43:56 72° WSW 01:49:18 10° NNW
NOSS 3-4 (A) 3.8 01:39:04 10° NW 01:46:13 87° WSW 01:47:31 65° SSE
NOSS 3-4 (C) 3.8 01:39:09 10° NW 01:46:20 87° SW 01:47:35 66° SSE
Cosmos 1140 Rocket 4.1 01:42:49 10° NNW 01:46:36 47° N 01:46:36 47° N
In-Cosmos 22 4.4 01:43:35 10° NNW 01:48:51 59° W 01:49:15 58° WSW
NOSS 0 Rocket 4.1 01:43:01 10° NNW 01:49:10 67° WSW 01:49:51 62° SSW
Cosmos 1980 3.7 01:43:42 10° NNW 01:48:55 76° NW 01:48:55 76° NW
Cosmos 2181 Rocket 4.4 01:49:42 23° SSW 01:53:32 59° W 01:59:45 10° N
Resurs 01 Rocket 3.1 02:02:36 34° WNW 02:02:36 34° WNW 02:05:43 10° NNW
Terra 4.4 02:10:53 12° NNE 02:10:53 12° NNE 02:11:19 10° NNE
SL-16 R/B 3.4 02:03:19 10° NNW 02:06:49 34° NNE 02:06:49 34° NNE
CZ-2C R/B 4.2 02:13:25 38° W 02:13:25 38° W 02:18:03 10° NNW
Cosmos 2218 Rocket 4.5 02:10:08 10° NNW 02:16:20 55° W 02:16:33 55° W
Cosmos 2219 Rocket 4.3 02:17:48 10° WNW 02:21:28 18° W 02:22:48 17° WSW
ATLAS 2AS CENTAUR R/B 4.0 02:23:09 10° NW 02:29:29 31° WSW 02:30:20 30° WSW
FALCON 9 R/B 4.2 01:58:46 10° W 02:34:21 61° SSW 02:36:00 58° S
CZ-2C R/B 4.2 02:35:05 10° N 02:38:13 32° NNW 02:38:13 32° NNW
Cosmos 2227 Rocket 3.7 02:42:21 32° NNW 02:42:21 32° NNW 02:46:11 10° N
Cosmos 2297 Rocket 4.0 02:53:01 28° NW 02:53:01 28° NW 02:57:24 10° N
Cosmos 2278 Rocket 4.3 06:53:09 22° N 06:53:09 22° N 06:55:05 10° NNE
ADEOS II 4.0 07:03:23 10° NNE 07:06:06 27° NE 07:06:06 27° NE
Resurs 1-4 Rocket 4.2 07:10:40 10° N 07:12:19 20° N 07:12:19 20° N
Cosmos 1943 Rocket 3.9 07:26:04 26° E 07:26:04 26° E 07:30:15 10° NE
ATLAS 5 CENTAUR R/B 4.2 07:37:50 15° N 07:37:50 15° N 07:39:10 10° N
CZ-2D R/B 4.1 07:37:12 10° N 07:38:54 19° NNW 07:38:54 19° NNW
Cosmos 2279 Rocket 4.3 07:36:38 10° N 07:41:56 63° NNE 07:41:56 63° NNE
USA 215 4.4 07:39:18 10° ENE 07:44:55 30° SE 07:46:01 28° SE
NOSS 3-2 (A) 3.6 07:47:06 64° ENE 07:47:06 64° ENE 07:52:37 10° NE
NOSS 3-2 (C) 4.0 07:47:55 48° ESE 07:47:55 48° ESE 07:53:49 10° NE
Atlas Centaur 2 3.8 07:50:44 31° SE 07:50:44 31° SE 07:56:13 10° ESE
Cosmos 2344 3.4 07:53:23 69° S 07:54:19 80° ESE 08:02:16 10° NE
ATLAS 3B R/B 3.4 07:55:20 38° SE 07:56:45 43° ESE 08:02:54 10° NE
Cosmos 1782 4.3 08:09:34 35° ENE 08:09:34 35° ENE 08:12:24 10° NNE
Cosmos 2369 Rocket 2.5 08:11:08 53° SE 08:11:59 59° ESE 08:17:35 10° NNE
Cosmos 1869 Rocket 4.2 08:09:30 10° N 08:13:39 55° ENE 08:13:39 55° ENE
Nadezhda 4 Rocket 4.0 08:12:36 50° SSE 08:14:15 74° E 08:20:22 10° N
IRIDIUM 106 4.5 08:16:33 63° NNW 08:16:33 63° NNW 08:20:59 10° N
Lacrosse 5 rocket 3.8 08:14:10 12° NNW 08:16:57 21° NNE 08:20:16 10° E
Meteor 1-20 Rocket 4.1 08:13:11 10° N 08:18:41 81° E 08:20:13 49° SSE
ARIANE 5 R/B 3.5 08:15:48 10° N 08:19:09 34° NNW 08:19:09 34° NNW
CZ-3 R/B 4.4 07:26:03 10° W 08:21:11 60° SSW 08:33:49 10° ESE
Unknown 4.4 08:26:59 45° NE 08:26:59 45° NE 08:29:48 10° NE
Cosmos 540 Rocket 4.2 08:27:57 40° NW 08:27:57 40° NW 08:31:56 10° N
Unknown 4.4 08:27:54 46° ESE 08:27:54 46° ESE 08:31:27 10° ENE
Unknown 4.3 08:29:30 48° ESE 08:29:30 48° ESE 08:33:08 10° ENE
Unknown 4.1 08:31:18 55° ESE 08:31:18 55° ESE 08:34:59 10° ENE
Unknown 4.1 08:32:41 53° ESE 08:32:41 53° ESE 08:36:27 10° ENE
Unknown 4.1 08:34:17 55° ESE 08:34:17 55° ESE 08:38:08 10° ENE
Unknown 4.2 08:36:48 46° N 08:36:48 46° N 08:39:48 10° NE
Unknown 3.9 08:37:27 60° SE 08:37:27 60° SE 08:41:27 10° ENE
Unknown 3.8 08:39:03 62° SE 08:39:03 62° SE 08:43:06 10° NE
IDEFIX/ARIANE 42P 3.0 08:35:14 10° NNE 08:40:28 60° E 08:44:15 19° S
Unknown 3.8 08:40:38 64° SE 08:40:39 64° SE 08:44:46 10° NE
CENTAUR R/B 2.4 08:39:02 43° SSW 08:41:08 81° ESE 08:47:56 10° NE
Unknown 3.6 08:42:04 74° SE 08:42:04 74° SE 08:46:07 10° NE
Unknown 3.7 08:42:15 67° SE 08:42:20 67° SE 08:46:28 10° NE
Unknown 3.5 08:43:49 84° NNE 08:43:49 84° NNE 08:47:45 10° NE
SeaSat 1 2.4 08:39:06 10° NNE 08:44:04 82° ESE 08:45:37 45° SSW
Cosmos 1125 Rocket 3.5 08:38:48 10° NNW 08:44:09 81° ENE 08:49:26 10° SSE
Cosmos 1461 4.1 08:41:40 10° NNW 08:45:31 41° NE 08:49:27 10° SE
Unknown 3.6 08:45:29 70° SSE 08:45:41 72° SE 08:49:49 10° NE
CZ-2C R/B 4.4 08:42:12 10° NE 08:46:22 27° E 08:50:36 10° SSE
Unknown 3.4 08:47:26 80° SSW 08:47:38 85° SE 08:51:47 10° NE
ADEOS II 3.3 08:43:29 10° N 08:47:01 25° NW 08:47:01 25° NW
Unknown 3.4 08:48:57 77° SSW 08:49:14 86° SE 08:53:24 10° NE
Unknown 3.5 08:49:19 73° SSW 08:49:39 81° SE 08:53:48 10° NE
USA 238 DEB 4.3 08:48:59 33° W 08:50:50 39° NW 08:57:17 10° NNE
USA 238 4.3 08:49:05 33° W 08:50:58 39° NW 08:57:26 10° NNE
Unknown 3.5 08:51:52 69° SSW 08:52:19 82° SE 08:56:28 10° NE
Cosmos 2026 Rocket 4.3 08:47:45 10° S 08:53:55 68° E 09:00:13 10° NNE
Unknown 3.5 08:55:05 65° SW 08:55:39 88° SSE 08:59:49 10° NE
Unknown 3.5 08:56:39 63° SW 08:57:17 90° W 09:01:27 10° NE
Lacrosse 5 4.4 08:54:14 10° NNW 08:57:22 16° NNE 09:00:30 10° ENE
ISS -2.1 08:59:21 24° SSE 08:59:21 24° SSE 09:00:55 10° SSE
CZ-2C R/B 4.4 08:55:04 10° NNW 08:57:09 22° NW 08:57:09 22° NW
Unknown 3.5 08:58:15 60° SW 08:58:58 87° NNW 09:03:07 10° NE
Unknown 3.5 08:59:51 58° WSW 09:00:37 85° NW 09:04:46 10° NE
Cosmos 372 Rocket 4.4 08:57:44 10° NW 09:02:11 38° W 09:02:11 38° W
Meteor 1-14 Rocket 4.2 08:57:32 10° NNW 09:02:56 56° W 09:08:20 10° S
Unknown 3.5 09:06:15 49° WSW 09:07:16 75° NW 09:11:26 10° NE
Unknown 3.6 09:07:52 46° WSW 09:08:58 72° NW 09:13:06 10° NE
Cosmos 1943 Rocket 2.6 09:07:37 33° W 09:09:14 41° WNW 09:14:29 10° N
Unknown 3.6 09:09:27 44° WSW 09:10:37 70° NW 09:14:44 10° NE
Unknown 3.6 09:11:03 42° WSW 09:12:16 68° NW 09:16:25 10° NE
Cosmos 2195 Rocket 4.4 09:06:28 10° SSW 09:12:47 75° W 09:19:05 10° N
Unknown 3.6 09:12:38 40° WSW 09:13:55 66° NW 09:18:02 10° NE
Cosmos 2263 4.2 09:12:16 27° SW 09:15:13 59° WNW 09:20:47 10° NNE
Cosmos 1707 Rocket 4.0 09:15:04 34° WSW 09:16:10 40° WNW 09:20:21 10° N
Unknown 3.7 09:15:48 37° WSW 09:17:14 62° NW 09:21:21 10° NE
H-2A R/B 2.2 09:14:46 10° N 09:18:35 65° WNW 09:20:43 24° SSW
Starlink (trailer) 3.8 09:17:24 35° W 09:18:55 60° NW 09:23:01 10° NE
Unknown 3.8 09:19:00 34° W 09:20:34 58° NW 09:24:40 10° NE
Meteor 1-5 Rocket 4.4 09:16:21 10° N 09:21:47 75° E 09:27:22 10° SSE
Unknown 3.8 09:20:37 32° W 09:22:15 56° NW 09:26:21 10° NE
Cosmos 1340 4.5 09:20:22 10° N 09:23:50 34° ENE 09:27:18 10° SE
BREEZE-M DEB (TANK) 3.9 09:17:19 19° W 09:25:14 55° NNW 09:29:00 10° ENE
COSMOS 2441 4.3 09:21:03 10° NNE 09:25:56 86° WNW 09:30:49 10° SSW
USA 215 3.3 09:21:42 10° NE 09:28:13 73° NW 09:33:22 17° WSW
Unknown 4.0 09:27:02 27° W 09:28:57 50° NW 09:32:59 10° NE
SL-4 R/B 3.8 09:26:14 10° NNW 09:29:10 24° NNE 09:32:13 10° E
Unknown 4.0 09:28:36 26° W 09:30:35 49° NW 09:34:38 10° NE
Cosmos 1733 Rocket 3.0 09:26:21 10° NNW 09:30:47 68° W 09:35:11 10° S
Cosmos 1428 Rocket 4.5 09:24:30 10° SSW 09:30:48 73° W 09:37:06 10° N
Unknown 4.1 09:29:23 26° W 09:31:23 47° NW 09:35:25 10° NE
PSLV R/B 4.2 09:29:04 10° N 09:33:03 35° WNW 09:35:28 20° SW
Unknown 4.1 09:31:48 24° W 09:33:55 46° NNW 09:37:56 10° NE
Cosmos 1315 Rocket 3.0 09:30:56 10° S 09:35:02 77° E 09:39:11 10° NNE
Unknown 4.2 09:33:31 23° W 09:35:42 43° NNW 09:39:41 10° NE
Cosmos 1092 Rocket 4.4 09:31:26 14° SW 09:36:20 38° WNW 09:42:02 10° N
Unknown 4.2 09:34:38 22° W 09:36:53 44° NNW 09:40:52 10° NE
Atlas Centaur 2 3.6 09:33:20 18° WSW 09:38:18 40° S 09:45:54 10° ESE
Iridium 4 Rocket 3.7 09:34:17 10° SSW 09:38:39 36° W 09:42:44 10° NNW
NOSS 3-2 (C) 4.4 09:35:23 18° W 09:38:55 32° NW 09:44:44 10° NNE
ADEOS 4.3 09:34:18 10° N 09:38:58 34° WNW 09:42:46 14° SW
Unknown 4.3 09:36:41 21° W 09:39:00 41° NNW 09:42:57 10° NE
Unknown 4.3 09:38:12 20° W 09:40:36 41° NNW 09:44:33 10° NE
Unknown 4.3 09:38:57 20° W 09:41:23 41° NNW 09:45:20 10° NE
Unknown 4.3 09:41:18 19° W 09:43:51 40° NNW 09:47:48 10° NE
Cosmos 44 3.6 09:40:29 15° SW 09:44:32 53° NW 09:49:18 10° NNE
Meteor 1-27 Rocket 3.8 09:41:09 10° SSW 09:47:03 74° W 09:52:54 10° N
Unknown 4.4 09:44:36 17° W 09:47:18 37° NNW 09:51:11 10° NE
ATLAS 3B R/B 3.2 09:42:37 16° WSW 09:47:27 39° NW 09:53:34 10° NNE
GPS 2-04 Rocket1 4.4 09:46:00 15° SW 09:47:41 19° SSW 09:50:35 10° SSE
Unknown 4.5 09:46:13 17° W 09:48:59 37° NNW 09:52:50 10° NE
Aureole 2 Rocket 1.7 09:49:52 10° SSW 09:52:37 88° W 09:55:19 10° NNE
Cosmos 1500 3.1 09:49:31 10° NNW 09:53:13 62° W 09:56:55 10° S
Cosmos 2369 Rocket 3.6 09:52:58 13° W 09:56:25 21° NW 10:00:43 10° N
Lacrosse 5 rocket 1.4 09:52:13 10° NW 09:56:29 72° SW 10:00:58 10° SE
Cosmos 1400 Rocket 4.1 09:54:45 13° WSW 09:57:03 21° WNW 10:00:02 10° NNW
Cosmos 1833 4.3 09:52:09 10° NNW 09:57:36 53° WSW 10:03:02 10° S
Cosmos 2266 Rocket 4.3 09:54:02 10° S 10:00:07 72° E 10:06:10 10° NNE
Cosmos 2242 Rocket 3.9 09:56:27 10° SSW 10:00:51 48° W 10:05:15 10° N
Meteor 1-11 Rocket 3.8 09:55:24 10° NNW 10:00:54 56° W 10:06:16 10° S
USA 267 4.0 09:54:41 10° ESE 10:01:03 56° NE 10:07:24 10° NW
Hubble Space Telescope 2.8 10:01:53 10° SW 10:04:28 16° S 10:07:03 10° SE
Cosmos 1812 3.4 10:01:14 10° SW 10:04:46 34° WNW 10:08:19 10° N
BREEZE-M DEB (TANK) 3.9 10:02:31 10° WNW 10:08:59 44° NNE 10:11:43 10° E
PSLV R/B 3.8 10:06:07 10° N 10:10:10 71° WNW 10:14:06 10° SSW
Cosmos 1703 Rocket 3.5 10:06:19 10° SSW 10:10:46 72° W 10:15:12 10° N
Cosmos 1656 Rocket 4.4 10:07:29 10° WSW 10:12:37 35° WNW 10:17:46 10° N
COSMOS 2487 3.8 10:10:23 10° NW 10:12:56 19° W 10:15:27 10° SSW
CZ-4B R/B 3.7 10:11:14 10° N 10:15:27 39° WNW 10:19:38 10° SW
Cosmos 1536 3.2 10:14:55 10° NNW 10:18:40 41° W 10:22:25 10° SSW
IDEFIX/ARIANE 42P 4.1 10:16:08 10° NNW 10:19:32 18° WNW 10:22:57 10° WSW
Cosmos 1553 Rocket 4.3 10:17:04 10° NNW 10:22:55 43° W 10:28:39 10° SSW
